CZ-6A DEB, 55540

Orbit data source: Space-Track

CZ-6A DEB, 55540 is space debris in SSO originally from a launch on Fri, 11 Nov 2022 UTC launched from the Taiyaun Space Center, China (TSC). Debris objects in space refer to the collection of defunct objects orbiting the Earth. Examples of debris include non-operational satellites, rocket bodies, and fragments generated from explosions, collisions, or faulty payload assembly.

Loading next visibility...
Identifier
55540, 2022-151YN
Orbit
SSO
Country
Flag of CNCN / PRC
Related business
Manufacturer
SAST
Mission
Spacecraft
Bus & Motor
Unknown
Mass
Unknown
Launch date (UTC)
2022-11-11 (4 years ago)
Launch vehicle
Unknown
Launch site
Taiyaun Space Center, China (TSC)
Object type
Payload
Rocket body
Debris
Shape & HBR
Unknown shape, 0.1 m
Radar Cross Section
Small (<0.1 m²)

Expand to show TLE details & history
Last TLE update: 2 days ago

TLE from 2 days ago
0 CZ-6A DEB
1 55540U 22151YN  26171.03788897  .00001022  00000-0  34654-3 0  9997
2 55540  98.6473 201.5539 0102255  43.8640 317.0608 14.35966979182895
Epoch: 2026-06-20T00:54Z
TLE epoch observation values (Epoch: 2026-06-20T00:54:33.607Z)
Latitude
-0.00002°
Longitude
-80.34438°
Altitude
721.609 km
Speed
7.522 km/s
True Right ascension
13h 26m 12s
True Declination
0° 00' 00"
Sunlit
Object was in daylight at epoch
Visualization orbit readout
Latitude
Unknown
Longitude
Unknown
Altitude
Unknown
Speed
Unknown
Apparent Right ascension
Unknown
Apparent Declination
Unknown
Sunlit
N/A
Visualization observer readout
Local Sidereal Time
21:28:02
Azimuth
Unknown
Elevation
Unknown
Doppler factor
Unknown
Orbital elements
Apogee altitude
842.071 km
Perigee altitude
695.906 km
Semi-major axis
7,147.126 km
Eccentricity
0.01023
Inclination
98.6473°
RAAN
201.5539°
Arg. of periapsis
43.864°
True anomaly
316.25506°
Mean anomaly
317.0608°
Eccentric anomaly
316.65869°
Mean motion
3.59208 °/min
Orbital period
100.22 mins
BSTAR
0.00034654
Loading maneuver chart data...
Computing Atmospheric mass density...
Loading historical data...
Loading historical data...
Loading historical data...
Loading historical data...
Loading historical data...
Loading historical data...
Loading historical data...

Documentation

Showing up to 5 results
|